Regional Weather Roundup
Issued by NWS Sioux Falls, SD

Home | Current Version | Previous Version | Graphics & Text | Print | Product List | Glossary On
Versions: 1 2 3 4 5 6 7 8 9 10 11 12 13 14 15 16 17 18 19 20 21 22 23 24 25 26 27 28 29 30 31 32 33 34 35 36 37 38 39 40 41 42 43 44 45 46 47 48 49 50
000
ASUS43 KFSD 010102
RWRFSD

WEATHER ROUNDUP FOR SE SOUTH DAKOTA/SW MINNESOTA/NW IOWA
NATIONAL WEATHER SERVICE SIOUX FALLS SD
800 PM CDT MON AUG 31 2015

NOTE: "FAIR" INDICATES FEW OR NO CLOUDS BELOW 12,000 FEET WITH NO
SIGNIFICANT WEATHER AND OR OBSTRUCTIONS TO VISIBILITY.


SDZ038>040-050-052>070-010200-
SOUTHEAST SOUTH DAKOTA

CITY           SKY/WX    TMP DP  RH WIND       PRES   REMARKS
BROOKINGS      PTCLDY    77  70  78 S7        29.88S
CHAMBERLAIN    MOCLDY    75  64  69 CALM      29.89S
HURON          MOCLDY    73  67  81 NW6       29.85S
MADISON        FAIR      75  73  94 S6        29.88S
MITCHELL       MOCLDY    76  69  79 NE5       29.84F
SIOUX FALLS    CLOUDY    78  70  76 S12       29.87R
WINNER         FAIR      76  62  62 NW3       29.91F
YANKTON        CLEAR     79  70  73 SE6       29.85R
$$

MNZ071-072-080-081-089-090-097-098-010200-
SOUTHWEST MINNESOTA

CITY           SKY/WX    TMP DP  RH WIND       PRES   REMARKS
FAIRMONT       CLEAR     73  64  73 S7        29.91S
JACKSON        CLEAR     73  68  83 S7        29.92S
LUVERNE        CLEAR     77  70  78 S3        29.89S
MARSHALL       CLEAR     79  66  65 S8        29.87F
MONTEVIDEO     PTCLDY    79  70  73 SW6       29.86S
PIPESTONE      CLEAR     73  70  88 S5        29.90R
REDWOOD FALLS  CLEAR     77  68  73 S9        29.87F
TRACY          PTCLDY    77  70  78 S7        29.88F
WINDOM         CLEAR     75  66  73 CALM      29.91S
WORTHINGTON    CLEAR     73  66  78 S9        29.91S
$$

IAZ001>003-012>014-020>022-031-032-NEZ013-014-SDZ071-010200-
NORTHWEST IOWA

CITY           SKY/WX    TMP DP  RH WIND       PRES   REMARKS
DENISON        CLEAR     73  70  88 MISG      29.90F
ESTHERVILLE    CLEAR     72  67  84 S7        29.92S
LE MARS        CLEAR     77  70  78 SE7       29.90F
SIOUX CITY     CLEAR     77  68  73 SE5       29.89S
SPENCER        CLEAR     72  66  81 S7        29.92S
$$

ABBREVIATIONS USED IN REMARKS
   TC - TEMPERATURE IN CELSIUS
  WCI - WIND CHILL INDEX
   HX - HEAT INDEX
  VSB - VISIBILITY




USA.gov is the U.S. government's official web portal to all federal, state and local government web resources and services.